TimeMDT,TemperatureF,Dew PointF,Humidity,Sea Level PressureIn,VisibilityMPH,Wind Direction,Wind SpeedMPH,Gust SpeedMPH,PrecipitationIn,Events,Conditions,WindDirDegrees,DateUTC
12:53 AM,66.9,43.0,42,29.99,10.0,North,4.6,-,N/A,,Clear,10,2013-08-07 06:53:00
1:53 AM,66.0,42.1,42,29.98,10.0,Calm,Calm,-,N/A,,Scattered Clouds,0,2013-08-07 07:53:00
2:53 AM,61.0,44.1,54,29.98,10.0,NNE,6.9,-,N/A,,Partly Cloudy,20,2013-08-07 08:53:00
3:53 AM,59.0,46.0,62,29.97,10.0,North,8.1,-,N/A,,Clear,10,2013-08-07 09:53:00
4:53 AM,57.9,46.9,67,29.96,10.0,North,6.9,-,N/A,,Partly Cloudy,10,2013-08-07 10:53:00
5:53 AM,57.0,46.9,69,29.97,10.0,North,8.1,-,N/A,,Partly Cloudy,350,2013-08-07 11:53:00
6:53 AM,57.9,46.9,67,29.97,10.0,NNW,8.1,-,N/A,,Partly Cloudy,340,2013-08-07 12:53:00
7:53 AM,62.1,48.0,60,29.97,10.0,NNE,6.9,-,N/A,,Partly Cloudy,20,2013-08-07 13:53:00
8:53 AM,63.0,48.0,58,29.97,10.0,ENE,3.5,-,N/A,,Scattered Clouds,70,2013-08-07 14:53:00
9:53 AM,69.1,48.0,47,29.97,10.0,Calm,Calm,-,N/A,,Partly Cloudy,0,2013-08-07 15:53:00
10:53 AM,73.0,48.9,42,29.95,10.0,ENE,6.9,-,N/A,,Partly Cloudy,60,2013-08-07 16:53:00
11:53 AM,75.0,48.0,38,29.94,10.0,Calm,Calm,-,N/A,,Partly Cloudy,0,2013-08-07 17:53:00
12:53 PM,78.1,48.9,36,29.91,10.0,Variable,3.5,-,N/A,,Partly Cloudy,0,2013-08-07 18:53:00
1:53 PM,81.0,46.9,30,29.89,10.0,Calm,Calm,-,N/A,,Partly Cloudy,0,2013-08-07 19:53:00
2:53 PM,84.9,46.0,26,29.88,10.0,Variable,4.6,-,N/A,,Partly Cloudy,0,2013-08-07 20:53:00
3:53 PM,84.9,44.1,24,29.86,10.0,Calm,Calm,-,0.00,,Scattered Clouds,0,2013-08-07 21:53:00
4:53 PM,84.9,41.0,21,29.84,10.0,SW,3.5,-,N/A,,Scattered Clouds,220,2013-08-07 22:53:00
5:41 PM,84.9,46.0,26,29.95,10.0,NNE,21.9,31.1,N/A,,Partly Cloudy,30,2013-08-07 23:41:00
5:53 PM,84.0,45.0,25,29.86,10.0,NE,23.0,-,N/A,,Partly Cloudy,40,2013-08-07 23:53:00
6:53 PM,82.9,45.0,26,29.87,10.0,NNE,19.6,27.6,N/A,,Partly Cloudy,30,2013-08-08 00:53:00
7:53 PM,75.9,50.0,40,29.91,10.0,ENE,17.3,24.2,N/A,,Partly Cloudy,60,2013-08-08 01:53:00
8:53 PM,71.1,51.1,49,29.95,10.0,ENE,12.7,-,N/A,,Partly Cloudy,60,2013-08-08 02:53:00
9:53 PM,68.0,52.0,56,29.97,10.0,NE,5.8,-,N/A,,Partly Cloudy,50,2013-08-08 03:53:00
10:53 PM,66.0,52.0,60,29.98,10.0,NNE,6.9,-,N/A,,Clear,20,2013-08-08 04:53:00
11:53 PM,64.0,52.0,65,29.97,10.0,North,5.8,-,N/A,,Clear,360,2013-08-08 05:53:00